Cloud_Cover
5 22 91 100 100 21 81 36 98 80 5 5 5 5 5 8 29 5 11 5 11 76 92 23 72 100 94 89 100 41 100 98 63 2 26 96 98 94 100 76 90 35 22
41 52 100 100 75 78 76 83 100 12 5 5 5 6 40 48 17 68 82 23 98 100 100 88 100 100 100 48 5 7 5 5 78 8 13 100 100 100 92 100 100 100 96
39 93 100 83 100 99 82 100 64 5 9 5 5 21 72 75 100 98 90 100 98 85 92 96 99 97 5 5 19 5 5 50 100 70 65 98 94 100 74 98 99 75 100
76 100 100 70 61 41 91 95 14 31 42 51 52 19 87 95 98 100 100 75 94 100 99 100 61 15 5 5 5 5 61 100 100 100 100 100 100 97 100 99 93 78 100
84 100 100 87 92 82 100 71 91 100 100 58 63 50 58 100 100 42 56 60 88 100 92 9 16 5 0 1 5 85 100 100 100 100 99 75 98 100 100 100 100 100 67
100 100 90 88 100 100 100 100 100 100 100 100 77 97 88 100 96 61 45 5 5 6 5 5 5 27 81 5 88 86 54 99 99 100 100 100 100 100 100 100 100 100 91
100 99 94 100 100 100 100 100 100 100 77 43 76 99 84 99 21 4 6 0 5 10 9 5 14 12 94 64 74 93 99 94 90 71 97 100 100 100 99 97 99 100 100
100 100 100 100 96 100 100 100 100 100 93 97 100 100 100 100 54 17 5 0 11 62 74 77 67 78 70 5 5 70 80 100 100 100 100 96 99 70 69 100 99 96 85
100 100 100 100 100 100 100 100 100 100 100 100 100 100 100 99 46 98 5 5 44 78 99 76 41 12 18 4 5 74 80 94 100 94 37 21 5 5 21 95 100 100 100
100 100 98 99 100 100 100 100 100 100 100 100 100 100 99 99 100 5 5 5 66 98 98 69 100 5 5 5 12 65 97 99 39 72 73 98 100 100 100 93 100 100 99
100 100 100 100 100 100 100 100 100 100 100 94 100 77 98 100 93 92 5 5 63 94 73 74 99 24 3 5 5 69 83 23 72 100 100 100 100 100 100 96 100 100 100
100 100 100 100 100 100 100 100 100 100 100 100 100 95 100 97 58 11 5 5 4 55 96 95 91 6 3 5 5 7 1 28 99 100 100 100 100 100 100 92 100 100 100
100 100 100 100 100 100 100 100 100 100 100 100 100 100 100 88 90 96 5 5 5 49 97 51 5 5 5 5 5 5 7 100 82 100 100 100 100 95 98 90 97 98 100
100 100 100 100 100 100 100 100 100 100 100 100 100 100 97 98 99 100 64 81 84 95 97 98 23 5 10 22 78 100 100 99 65 98 100 100 100 100 100 100 96 100 100
100 100 100 100 100 100 100 100 100 93 94 99 100 100 95 86 88 52 82 100 100 100 10 36 99 100 99 100 100 100 100 100 100 16 100 100 100 100 100 100 100 99 100
100 100 100 100 100 100 99 89 81 100 100 81 8 5 9 5 5 5 22 13 23 50 65 98 92 100 97 100 100 100 100 100 100 96 100 100 100 100 100 99 100 100 100
100 100 100 100 95 92 99 100 100 100 93 6 5 7 5 10 41 5 6 5 58 99 87 98 100 100 97 100 100 100 100 100 24 100 100 100 100 100 100 100 100 100 100
98 93 100 98 100 100 99 100 100 98 79 67 84 52 5 5 25 6 12 80 100 100 99 99 100 100 99 100 100 100 100 100 100 100 100 100 100 100 100 100 100 100 100
92 100 100 100 85 96 100 100 91 98 100 94 98 96 40 23 63 55 73 90 93 100 100 100 92 100 97 100 100 98 100 100 92 89 100 100 100 100 100 100 100 100 92
83 91 98 89 89 100 100 88 96 100 100 100 100 100 100 100 96 91 89 100 99 100 100 99 99 98 100 100 96 100 100 100 100 100 100 100 100 100 100 100 100 100 100
82 89 100 100 100 91 99 100 100 100 100 100 100 100 98 100 94 100 100 100 100 95 99 93 100 100 100 91 97 100 100 100 100 100 100 100 100 100 100 100 100 100 100
44 94 100 100 88 44 26 98 100 100 98 100 100 100 100 100 100 100 98 100 100 99 98 99 100 100 100 97 100 100 100 100 100 100 100 100 100 100 100 100 100 100 99
100 98 91 100 60 12 8 99 100 100 100 100 100 100 100 100 100 100 100 100 100 100 97 98 100 100 100 99 99 96 100 100 100 100 100 100 100 100 100 100 100 100 100
92 96 83 100 100 23 81 98 100 100 100 100 100 100 100 100 100 100 100 100 100 100 100 100 100 100 100 100 100 100 100 100 100 99 89 100 100 100 100 100 100 100 100
100 93 100 100 41 51 76 99 100 100 100 100 100 100 100 100 100 100 100 100 100 100 100 100 100 100 100 100 100 100 100 100 100 100 100 100 100 100 99 100 100 100 99
99 100 100 100 53 89 88 82 100 100 100 100 100 100 100 100 100 100 100 100 100 100 100 100 100 100 100 100 100 100 100 100 100 100 65 100 100 100 100 100 98 100 100